Starlink 11537

operational
NORAD ID: 62911 Int'l Des: 2025-027 Owner: SPXS Country: US Constellation: starlink
LEOCIRCULAR

About Starlink 11537

Description loading...

Live Position

Loading 3D Globe...

Upcoming Passes

Altitude History

Altitude vs Time

uPlot chart will show altitude changes over time

Two-Line Element Set

1 62911U 25027E 26034.49421528 .00283785 00000-0 21251-2 0 9991
2 62911 42.9984 193.8206 0001960 245.4282 114.6381 15.71011423 57819
Epoch: Feb 3, 2026 • Age: 13 hours

Current Status

Altitude 356.1 km
Velocity 7.70 km/s
Sub-Earth Point -10.41°S, 125.77°W
Launch Date Feb 8, 2025
Age 0.9 years
Type internet

Technical Details

Classification Payload
Mass 960.00 kg
Dry Mass 910.00 kg
Total Mass 960.00 kg
Length 0.30 m
Diameter 4.10 m
Span 29.00 m
Shape Box + pan
Manufacturer SPXS
Bus Type Starlink V2MD
Phase Status In Orbit
Owner/State SPXS/US

Large Constellations

Loading constellations...